North Platte, NE

8:17 AM CDT on March 26, 2017 (GMT -0500)
North Platte Regional-Bird

Weather History for KLBF - September, 2013

Change the Weather History Date:

Monday, September 23, 2013

  Actual Average Record
Temperature  
Mean Temperature 62 °F 59 °F  
Max Temperature 67 °F 75 °F 95 °F (1921)
Min Temperature 56 °F 43 °F 23 °F (1989)
Degree Days  
Heating Degree Days 3 7  
Month to date heating degree days 36 91  
Since 1 July heating degree days 49 111  
Cooling Degree Days 0 1  
Month to date cooling degree days 157 65  
Year to date cooling degree days 994 760  
Growing Degree Days 12 (Base 50)    
Moisture  
Dew Point 50 °F    
Average Humidity 71    
Maximum Humidity 86    
Minimum Humidity 56    
Precipitation  
Precipitation 0.60 in 0.05 in 0.96 in (2015)
Month to date precipitation 4.43 1.08  
Year to date precipitation 18.79 17.30  
Snow  
Snow 0.00 in 0.00 in 0.40 in (2000)
Month to date snowfall 0.0 0.1  
Since 1 July snowfall 0.0 0.1  
Since 1 September snowfall 0.0 0.1  
Snow Depth 0.00 in    
Sea Level Pressure  
Sea Level Pressure 29.60 in    
Wind  
Wind Speed 15 mph (ESE)    
Max Wind Speed 28 mph    
Max Gust Speed 39 mph    
Visibility 9 miles    
Events Rain    
T = Trace of Precipitation, MM = Missing Value Source: NWS Daily Summary

Daily Weather History Graph

Daily Weather History Graph

Search for Another Location

Airport or City:

Trip Planner

Search our weather history database for the weather conditions in past years. The results will help you decide how hot, cold, wet, or windy it might be!

Date:

Astronomy

Sep. 23, 2013 Rise Set
Actual Time 7:31 AM CDT 7:37 PM CDT
Civil Twilight 7:04 AM CDT 8:05 PM CDT
Nautical Twilight 6:31 AM CDT 8:37 PM CDT
Astronomical Twilight 5:59 AM CDT 9:09 PM CDT
Moon 10:08 PM CDT (9/23) 11:54 AM CDT (9/23)
Length of Visible Light 13h 01m
Length of Day
12h 06m
Waning Gibbous, 81% of the Moon is Illuminated
Sep 23
Waning Gibbous
Sep 26
Last Quarter
Oct 4
New
Oct 11
First Quarter
Oct 18
Full

Hourly Weather History & Observations

Time (CDT) Temp. Dew Point Humidity Pressure Visibility Wind Dir Wind Speed Gust Speed Precip Events Conditions
12:53 AM 66.9 °F 50.0 °F 54% 29.55 in 10.0 mi SSE 17.3 mph 34.5 mph N/A   Clear
1:53 AM 64.9 °F 48.9 °F 56% 29.52 in 10.0 mi SSE 20.7 mph 39.1 mph N/A   Clear
2:53 AM 63.0 °F 48.0 °F 58% 29.50 in 10.0 mi SSE 16.1 mph 25.3 mph N/A   Clear
3:53 AM 61.0 °F 46.9 °F 60% 29.50 in 10.0 mi SSE 16.1 mph 32.2 mph N/A   Clear
4:53 AM 61.0 °F 46.9 °F 60% 29.47 in 10.0 mi SSE 21.9 mph 38.0 mph N/A   Clear
5:53 AM 61.0 °F 46.9 °F 60% 29.48 in 10.0 mi SSE 21.9 mph 26.5 mph N/A   Clear
6:53 AM 59.0 °F 46.9 °F 64% 29.50 in 10.0 mi ESE 16.1 mph - N/A   Clear
7:53 AM 57.0 °F 48.0 °F 72% 29.52 in 10.0 mi ESE 11.5 mph - N/A   Clear
8:53 AM 57.9 °F 48.0 °F 70% 29.53 in 10.0 mi ESE 10.4 mph 18.4 mph N/A   Overcast
9:53 AM 59.0 °F 50.0 °F 72% 29.55 in 10.0 mi ESE 10.4 mph - 0.00 in   Mostly Cloudy
10:53 AM 63.0 °F 48.9 °F 60% 29.53 in 10.0 mi ESE 17.3 mph - N/A   Clear
11:53 AM 64.9 °F 50.0 °F 58% 29.53 in 10.0 mi SE 16.1 mph 20.7 mph N/A   Clear
12:53 PM 64.0 °F 48.9 °F 58% 29.54 in 10.0 mi SSE 12.7 mph - N/A   Clear
1:53 PM 63.0 °F 51.1 °F 65% 29.57 in 10.0 mi ESE 5.8 mph - N/A   Overcast
2:53 PM 63.0 °F 52.0 °F 67% 29.56 in 10.0 mi East 8.1 mph - 0.00 in Rain Light Rain
3:53 PM 57.9 °F 54.0 °F 87% 29.59 in 4.0 mi ESE 15.0 mph - 0.16 in Rain Rain
4:05 PM 57.2 °F 53.6 °F 88% 29.64 in 2.0 mi ESE 13.8 mph - 0.06 in Rain Heavy Rain
4:17 PM 57.2 °F 53.6 °F 88% 29.64 in 3.0 mi East 17.3 mph - 0.12 in Rain Heavy Rain
4:46 PM 57.2 °F 53.6 °F 88% 29.64 in 2.5 mi East 16.1 mph - 0.30 in Rain Rain
4:53 PM 57.0 °F 53.1 °F 87% 29.60 in 4.0 mi East 15.0 mph - 0.32 in Rain Rain
5:53 PM 59.0 °F 53.1 °F 81% 29.62 in 10.0 mi NNE 12.7 mph - 0.12 in Rain Light Rain
6:53 PM 57.9 °F 53.1 °F 84% 29.66 in 10.0 mi North 10.4 mph - 0.00 in   Overcast
7:53 PM 57.0 °F 53.1 °F 87% 29.72 in 10.0 mi NW 10.4 mph - N/A   Mostly Cloudy
8:53 PM 57.9 °F 52.0 °F 81% 29.75 in 10.0 mi NNW 17.3 mph 25.3 mph N/A   Partly Cloudy
9:53 PM 57.9 °F 51.1 °F 78% 29.78 in 10.0 mi NNW 12.7 mph - N/A   Overcast
10:00 PM 57.2 °F 51.8 °F 82% 29.81 in 10.0 mi NNW 15.0 mph - N/A   Overcast
10:53 PM 57.9 °F 51.1 °F 78% 29.80 in 10.0 mi North 17.3 mph 23.0 mph N/A   Overcast
11:53 PM 57.0 °F 51.1 °F 81% 29.82 in 10.0 mi NNW 17.3 mph 26.5 mph N/A   Overcast